Location: Bannatyne
(13.0833°N, 59.5333°W)
Time: 03:20:12
(UTC+00:00)

Vanguard 3 - Pass Details

Date: 24 January 2020
Orbit: 508 x 3263 km, 33.3° (Epoch: 16 February)

Event Time Altitude Azimuth Distance (km) Brightness Sun altitude
Rises 18:50:47 0° 231° (SW) 5,785 12.4 39.0°
Reaches altitude 10° 18:54:04 10° 229° (SW) 5,073 12.5 38.3°
Maximum altitude 19:10:33 80° 144° (SE) 3,176 10.7 35.1°
Drops below altitude 10° 19:30:39 10° 60° (ENE) 6,011 11.1 31.0°
Sets 19:34:56 0° 59° (ENE) 6,850 11.3 30.1°
